Voltar ao catálogo

STARLINK-1364

AtivoComunicaçõesVLEO
NORAD 45589·PAYLOAD·🇺🇸 United States

Lançado Apr 22, 2020 de Cape Canaveral Space Force Station

Loading…

Próximas Passagens (próximas 24 horas)

TLE

AtualizadoSource: CelesTrak SupGP

Época: Sep 14, 2026, 20:58 UTC

1 45589C 20025BL  26257.87409722  .00115200  00000+0  53750-3 0  2579
2 45589  53.0332 211.6852 0003580  75.3183  75.6039 15.82528651    11

Acompanhe STARLINK-1364 em tempo real com AllMySat

Download on the App Store